Regional Weather Roundup
Issued by NWS

Home | Current Version | Previous Version | Text Only | Print | Product List | Glossary Off
Versions: 1 2 3 4 5 6 7 8 9 10 11 12 13 14 15 16 17 18 19 20 21 22 23 24 25 26 27 28 29 30 31 32 33 34 35 36 37 38 39 40 41 42 43 44 45 46 47 48 49 50

862
ASUS43 KFSD 251402
RWRSD

WEATHER ROUNDUP FOR SOUTH DAKOTA
NATIONAL WEATHER SERVICE SIOUX FALLS SD
900 AM CDT WED MAY 25 2016

NOTE: "FAIR" INDICATES FEW OR NO CLOUDS BELOW 12,000 FEET WITH NO
SIGNIFICANT WEATHER AND/OR OBSTRUCTIONS TO VISIBILITY.


SDZ001>005-009-010-012>017-251500-
NORTHWEST AND NORTH CENTRAL SOUTH DAKOTA

CITY           SKY/WX    TMP DP  RH WIND       PRES   REMARKS
BUFFALO          N/A     54  49  83 SW6       29.78R
FAITH            N/A     58  51  78 W6        29.82F
MOBRIDGE       PTSUNNY   65  55  70 E7        29.76R
$$

SDZ012>016-024>037-041>051-057-063-072>074-251500-
SOUTHWEST AND SOUTH CENTRAL SOUTH DAKOTA

CITY           SKY/WX    TMP DP  RH WIND       PRES   REMARKS
RAPID CTY ARPT SUNNY     57  50  77 S6        29.85F
PIERRE         MOSUNNY   60  56  86 SW14      29.78R
CUSTER         CLOUDY    47  45  93 W10G17    29.91S
ELLSWORTH AFB  SUNNY     58  51  76 S7        29.85S
PHILIP         SUNNY     60  53  77 W14       29.82S
PINE RIDGE     SUNNY     54  49  83 SW15      29.88S
WINNER         CLOUDY    62  56  80 W9        29.81S
$$

SDZ004>011-016>023-039-040-251500-
NORTHEAST SOUTH DAKOTA

CITY           SKY/WX    TMP DP  RH WIND       PRES   REMARKS
ABERDEEN       RAIN      60  57  89 NE14      29.77S FOG
WATERTOWN      CLOUDY    62  59  90 S17       29.76R
SISSETON         N/A     63  60  90 SW9       29.74F
$$

SDZ017-020-022-023-036>040-048>070-251500-
SOUTHEAST SOUTH DAKOTA

CITY           SKY/WX    TMP DP  RH WIND       PRES   REMARKS
SIOUX FALLS    CLOUDY    63  59  87 S7        29.79F
HURON          CLOUDY    61  58  90 NW7       29.74S
MITCHELL       PTSUNNY   65  61  87 W10       29.77R
YANKTON        CLOUDY    64  57  77 SW6       29.78R
$$

ABBREVIATIONS USED IN REMARKS
   TC - TEMPERATURE IN CELSIUS
  WCI - WIND CHILL INDEX
   HX - HEAT INDEX
  VSB - VISIBILITY





USA.gov is the U.S. government's official web portal to all federal, state and local government web resources and services.